* Astronomy

Members Login
Username 
 
Password 
    Remember Me  
Post Info TOPIC: Asteroid 2010 NU1


L

Posts: 131433
Date:
Asteroid 2010 NU1
Permalink  
 


Orbital elements:
2010 NU1 Earth MOID = 0.3183 AU
Epoch 2010 July 23.0 TT = JDT 2455400.5 MPC
M 29.07183 (2000.0) P Q
n 0.38464736 Peri. 37.34147 -0.72002957 -0.46378562
a 1.8725247 Node 106.92579 +0.43123678 -0.88183769
e 0.7529538 Incl. 32.65442 +0.54368396 +0.08523607
P 2.56 H 21.2 G 0.15 U 9

MPEC 2010 - N51


__________________
Page 1 of 1  sorted by
 
Quick Reply

Please log in to post quick replies.



Create your own FREE Forum
Report Abuse
Powered by ActiveBoard